sat.trackr.live / text

‹ back to catalog

STARLINK-2465

NORAD 48124 · 2021-027AJ

PAYLOAD ACTIVE UNKNOWN

§ Identity

Operator
Country
US
Launch date
2021-04-07
Launch site
AFETR
Launch vehicle
Mass (kg)
RCS (m²)

Purposes: comms

External: N2YO · Heavens-Above · Gunter

§ Orbital elements

Epoch: 2026-09-12T13:09:19.804032Z

Period
94.01 min
Inclination
53.1597°
Eccentricity
0.0001205
Mean motion
15.31703907 rev/d
Perigee alt
469.9 km
Apogee alt
471.6 km
Semi-major
6,848.9 km
B*
1.9915e-4
RAAN
5.3716°
Arg perigee
89.2421°
Mean anomaly
270.8719°
Rev number
30,128

§ Raw data

STARLINK-24651 48124U 21027AJ  26255.54814588  .00005820  00000+0  19915-3 0  99962 48124  53.1597   5.3716 0001205  89.2421 270.8719 15.31703907301281

JSON: /api/v1/satellites/48124 · /tle

For live sub-satellite position, see the globe view (requires WebGL).

§ Visibility from observer

Set your observer location to see the next 7 days of passes ≥ 10°. The values pass through the URL so the page stays shareable.

No JS? Fill the form by hand. The geolocation button needs JavaScript.